KD5UIG Weather Reports


Display with metric or nautical units.
time (UTC)temp
F
wind
direction
speed
MPH
gust
MPH
rain 1hr
in
rain 24hr
in
rain mn
in
humidity
%
barometer
mb
20260904232556 100 125 2.0 7.0 0.00 0.00 0.00 39 1011.0
20260904232101 100 87 2.0 6.0 0.00 0.00 0.00 39 1011.0
20260904231605 101 111 0.0 6.0 0.00 0.00 0.00 39 1011.1
20260904231056 101 193 1.0 7.0 0.00 0.00 0.00 39 1011.1
20260904230556 101 150 2.0 9.0 0.00 0.00 0.00 39 1011.1
20260904230101 101 85 2.0 9.0 0.00 0.00 0.00 39 1011.1
20260904225555 102 111 1.0 5.0 0.00 0.00 0.00 39 1011.1
20260904225057 102 326 2.0 5.0 0.00 0.00 0.00 39 1011.2
20260904224607 102 197 1.0 5.0 0.00 0.00 0.00 39 1011.1
20260904224059 102 134 1.0 5.0 0.00 0.00 0.00 39 1011.1
20260904223557 102 205 2.0 8.0 0.00 0.00 0.00 39 1011.2
20260904223102 101 84 1.0 8.0 0.00 0.00 0.00 40 1011.3
20260904222556 101 123 1.0 7.0 0.00 0.00 0.00 39 1011.2
20260904222056 102 213 1.0 7.0 0.00 0.00 0.00 39 1011.3
20260904221605 102 151 1.0 6.0 0.00 0.00 0.00 38 1011.3
20260904221059 103 79 1.0 6.0 0.00 0.00 0.00 38 1011.3
20260904220556 103 0 2.0 6.0 0.00 0.00 0.00 38 1011.3
20260904220119 103 104 1.0 11.0 0.00 0.00 0.00 38 1011.3
20260904215556 103 82 2.0 11.0 0.00 0.00 0.00 38 1011.5
20260904215056 103 204 3.0 8.0 0.00 0.00 0.00 38 1011.6
20260904214607 102 195 3.0 11.0 0.00 0.00 0.00 38 1011.7
20260904214056 102 0 2.0 11.0 0.00 0.00 0.00 38 1011.7
20260904213556 102 169 3.0 8.0 0.00 0.00 0.00 39 1011.7
20260904213104 102 105 2.0 7.0 0.00 0.00 0.00 40 1011.7
20260904212555 103 283 1.0 8.0 0.00 0.00 0.00 38 1011.7
20260904212057 103 112 2.0 8.0 0.00 0.00 0.00 39 1011.7
20260904211608 103 61 2.0 10.0 0.00 0.00 0.00 38 1011.8
20260904211056 103 332 1.0 10.0 0.00 0.00 0.00 38 1011.8
20260904210556 104 242 3.0 10.0 0.00 0.00 0.00 39 1011.9
20260904210119 103 175 0.0 6.0 0.00 0.00 0.00 40 1012.0
20260904205557 103 146 2.0 9.0 0.00 0.00 0.00 40 1012.1
20260904205056 103 107 2.0 9.0 0.00 0.00 0.00 40 1012.2
20260904204604 103 96 1.0 10.0 0.00 0.00 0.00 39 1012.2
20260904204057 104 194 4.0 10.0 0.00 0.00 0.00 39 1012.2
20260904203556 104 198 2.0 7.0 0.00 0.00 0.00 39 1012.3
20260904203100 103 0 2.0 9.0 0.00 0.00 0.00 39 1012.4
20260904202556 103 134 2.0 12.0 0.00 0.00 0.00 38 1012.4
20260904202100 103 223 4.0 12.0 0.00 0.00 0.00 39 1012.5
20260904201606 103 232 2.0 9.0 0.00 0.00 0.00 39 1012.5
20260904201056 103 80 2.0 10.0 0.00 0.00 0.00 38 1012.7
20260904200556 103 184 3.0 12.0 0.00 0.00 0.00 38 1012.8
20260904195557 103 219 1.0 7.0 0.00 0.00 0.00 40 1013.0
20260904195056 102 178 2.0 6.0 0.00 0.00 0.00 41 1012.9
20260904194609 102 86 2.0 12.0 0.00 0.00 0.00 41 1012.9
20260904194056 102 0 2.0 12.0 0.00 0.00 0.00 41 1012.9
20260904193556 101 284 2.0 9.0 0.00 0.00 0.00 42 1013.0
20260904193115 101 229 3.0 11.0 0.00 0.00 0.00 42 1013.1
20260904192556 100 181 4.0 11.0 0.00 0.00 0.00 42 1013.1
20260904192055 100 225 2.0 10.0 0.00 0.00 0.00 43 1013.1
20260904191601 99 206 3.0 10.0 0.00 0.00 0.00 43 1013.2
20260904191056 98 202 3.0 9.0 0.00 0.00 0.00 44 1013.2
20260904190556 98 145 2.0 7.0 0.00 0.00 0.00 46 1013.3
20260904185559 98 85 2.0 12.0 0.00 0.00 0.00 46 1013.6
20260904185100 99 105 2.0 7.0 0.00 0.00 0.00 46 1013.6
20260904184616 99 46 2.0 8.0 0.00 0.00 0.00 47 1013.6
20260904184056 98 103 3.0 8.0 0.00 0.00 0.00 46 1013.8
20260904183556 98 230 1.0 7.0 0.00 0.00 0.00 45 1013.9
20260904183100 98 220 1.0 11.0 0.00 0.00 0.00 44 1013.9
20260904182556 97 180 2.0 11.0 0.00 0.00 0.00 43 1014.0
20260904182055 98 200 3.0 9.0 0.00 0.00 0.00 41 1014.0
20260904181610 98 54 3.0 9.0 0.00 0.00 0.00 44 1014.1
20260904181055 97 0 3.0 11.0 0.00 0.00 0.00 47 1014.1
20260904180556 96 194 4.0 11.0 0.00 0.00 0.00 46 1014.1
20260904180118 95 186 3.0 9.0 0.00 0.00 0.00 46 1014.2
20260904175558 95 200 2.0 8.0 0.00 0.00 0.00 47 1014.3
20260904175056 95 213 4.0 12.0 0.00 0.00 0.00 46 1014.3
20260904174617 95 196 4.0 12.0 0.00 0.00 0.00 47 1014.3
20260904174055 95 171 3.0 8.0 0.00 0.00 0.00 47 1014.4
20260904173557 95 110 2.0 8.0 0.00 0.00 0.00 49 1014.4
20260904173102 95 205 2.0 12.0 0.00 0.00 0.00 51 1014.6
20260904172557 95 182 3.0 12.0 0.00 0.00 0.00 49 1014.6
20260904172056 95 121 2.0 11.0 0.00 0.00 0.00 51 1014.6
20260904171605 95 111 4.0 11.0 0.00 0.00 0.00 50 1014.7
20260904171056 96 185 2.0 10.0 0.00 0.00 0.00 50 1014.7
20260904170556 96 192 3.0 10.0 0.00 0.00 0.00 50 1014.7
20260904170101 96 171 3.0 10.0 0.00 0.00 0.00 51 1014.7
20260904165557 96 190 3.0 10.0 0.00 0.00 0.00 52 1014.9
20260904165056 95 170 2.0 10.0 0.00 0.00 0.00 52 1015.0
20260904164602 95 208 4.0 10.0 0.00 0.00 0.00 53 1015.1
20260904164055 94 183 3.0 11.0 0.00 0.00 0.00 54 1015.0
20260904163556 94 240 2.0 11.0 0.00 0.00 0.00 55 1015.0
20260904163110 92 180 3.0 11.0 0.00 0.00 0.00 56 1015.0
20260904162557 91 185 2.0 10.0 0.00 0.00 0.00 60 1015.0
20260904162056 90 190 2.0 8.0 0.00 0.00 0.00 61 1015.0
20260904161602 89 230 4.0 12.0 0.00 0.00 0.00 59 1015.0
20260904161057 90 217 3.0 12.0 0.00 0.00 0.00 58 1015.1
20260904160555 90 247 5.0 11.0 0.00 0.00 0.00 59 1015.1
20260904160105 90 188 4.0 10.0 0.00 0.00 0.00 61 1015.0
20260904155600 90 183 3.0 10.0 0.00 0.00 0.00 61 1014.9
20260904155059 89 165 3.0 12.0 0.00 0.00 0.00 61 1014.9
20260904154604 89 202 4.0 12.0 0.00 0.00 0.00 62 1015.0
20260904154058 88 219 3.0 10.0 0.00 0.00 0.00 65 1015.0
20260904153556 88 209 3.0 12.0 0.00 0.00 0.00 65 1015.0
20260904153124 88 179 3.0 13.0 0.00 0.00 0.00 66 1014.9
20260904152555 87 179 3.0 13.0 0.00 0.00 0.00 66 1015.0
20260904152056 87 178 4.0 11.0 0.00 0.00 0.00 67 1014.9
20260904151603 87 219 4.0 11.0 0.00 0.00 0.00 68 1014.9
20260904151056 86 209 4.0 10.0 0.00 0.00 0.00 70 1014.9
20260904150556 85 240 2.0 9.0 0.00 0.00 0.00 73 1014.8
20260904145556 84 184 2.0 9.0 0.00 0.00 0.00 74 1014.9
20260904145056 84 201 3.0 8.0 0.00 0.00 0.00 75 1015.0
20260904144602 84 0 1.0 6.0 0.00 0.00 0.00 76 1014.8
20260904144055 84 204 2.0 6.0 0.00 0.00 0.00 77 1014.8
20260904143555 83 212 0.0 5.0 0.00 0.00 0.00 79 1014.7
20260904143106 82 0 1.0 6.0 0.00 0.00 0.00 79 1014.7
20260904142559 82 186 1.0 6.0 0.00 0.00 0.00 79 1014.6
20260904142057 82 96 1.0 6.0 0.00 0.00 0.00 80 1014.7
20260904141610 82 163 2.0 6.0 0.00 0.00 0.00 81 1014.6
20260904141056 82 0 1.0 6.0 0.00 0.00 0.00 81 1014.6
20260904140556 81 143 1.0 7.0 0.00 0.00 0.00 82 1014.6
20260904140104 81 186 2.0 7.0 0.00 0.00 0.00 82 1014.6
20260904135556 81 132 1.0 7.0 0.00 0.00 0.00 82 1014.6
20260904135056 81 170 1.0 5.0 0.00 0.00 0.00 83 1014.6
20260904134606 80 168 1.0 5.0 0.00 0.00 0.00 84 1014.6
20260904134056 80 164 1.0 5.0 0.00 0.00 0.00 84 1014.5
20260904133556 80 157 1.0 5.0 0.00 0.00 0.00 84 1014.4
20260904133114 79 0 1.0 6.0 0.00 0.00 0.00 84 1014.4
20260904132556 79 146 0.0 6.0 0.00 0.00 0.00 84 1014.4
20260904132056 79 192 0.0 3.0 0.00 0.00 0.00 84 1014.3
20260904131616 79 142 1.0 4.0 0.00 0.00 0.00 84 1014.3
20260904131056 79 119 1.0 4.0 0.00 0.00 0.00 84 1014.2
20260904130556 79 101 1.0 5.0 0.00 0.00 0.00 84 1014.1
20260904130112 79 172 1.0 5.0 0.00 0.00 0.00 85 1014.2
20260904125559 79 148 0.0 5.0 0.00 0.00 0.00 85 1014.2
20260904125056 79 0 1.0 5.0 0.00 0.00 0.00 85 1014.1
20260904124611 79 132 0.0 4.0 0.00 0.00 0.00 85 1014.1
20260904124056 79 0 0.0 5.0 0.00 0.00 0.00 85 1014.1
20260904123558 79 186 0.0 5.0 0.00 0.00 0.00 85 1014.1
20260904123115 79 154 1.0 5.0 0.00 0.00 0.00 85 1014.1
20260904122556 78 178 1.0 3.0 0.00 0.00 0.00 85 1014.1
20260904122056 78 130 0.0 3.0 0.00 0.00 0.00 85 1014.0
20260904121603 78 0 0.0 4.0 0.00 0.00 0.00 85 1013.9
20260904121057 78 0 1.0 4.0 0.00 0.00 0.00 85 1013.8
20260904120556 78 159 0.0 3.0 0.00 0.00 0.00 84 1013.8
20260904120106 78 0 0.0 2.0 0.00 0.00 0.00 84 1013.8
20260904115556 78 182 0.0 2.0 0.00 0.00 0.00 84 1013.7
20260904115057 78 0 0.0 2.0 0.00 0.00 0.00 84 1013.7
20260904114602 78 0 0.0 2.0 0.00 0.00 0.00 84 1013.7
20260904114058 78 0 0.0 2.0 0.00 0.00 0.00 84 1013.7
20260904113557 79 0 0.0 4.0 0.00 0.00 0.00 84 1013.6
20260904113107 79 171 0.0 4.0 0.00 0.00 0.00 84 1013.7
20260904112556 79 0 0.0 2.0 0.00 0.00 0.00 84 1013.6
20260904112059 79 172 0.0 3.0 0.00 0.00 0.00 84 1013.5
20260904111609 79 0 0.0 3.0 0.00 0.00 0.00 84 1013.6
20260904111057 79 179 0.0 4.0 0.00 0.00 0.00 84 1013.6
20260904110556 79 0 0.0 4.0 0.00 0.00 0.00 83 1013.6
20260904110109 79 167 0.0 4.0 0.00 0.00 0.00 83 1013.6
20260904105559 79 0 0.0 4.0 0.00 0.00 0.00 83 1013.6
20260904105057 79 165 0.0 4.0 0.00 0.00 0.00 83 1013.6
20260904104604 79 169 0.0 2.0 0.00 0.00 0.00 83 1013.6
20260904104056 79 174 0.0 4.0 0.00 0.00 0.00 83 1013.6
20260904103556 79 0 0.0 4.0 0.00 0.00 0.00 83 1013.6
20260904103101 79 171 0.0 3.0 0.00 0.00 0.00 82 1013.6
20260904102556 79 180 0.0 5.0 0.00 0.00 0.00 82 1013.6
20260904102055 79 0 0.0 5.0 0.00 0.00 0.00 82 1013.5
20260904101616 79 203 0.0 5.0 0.00 0.00 0.00 82 1013.4
20260904101056 79 185 0.0 6.0 0.00 0.00 0.00 82 1013.5
20260904100557 79 0 1.0 6.0 0.00 0.00 0.00 82 1013.5
20260904095555 79 0 0.0 4.0 0.00 0.00 0.00 81 1013.3
20260904095057 79 210 0.0 6.0 0.00 0.00 0.00 81 1013.3
20260904094603 79 84 1.0 8.0 0.00 0.00 0.00 81 1013.4
20260904094054 79 198 2.0 8.0 0.00 0.00 0.00 81 1013.4
20260904093554 79 192 1.0 7.0 0.00 0.00 0.00 81 1013.4
20260904093118 79 180 2.0 7.0 0.00 0.00 0.00 81 1013.3
20260904092557 79 192 1.0 6.0 0.00 0.00 0.00 81 1013.2
20260904092057 79 180 2.0 8.0 0.00 0.00 0.00 81 1013.2
20260904091601 79 156 1.0 8.0 0.00 0.00 0.00 81 1013.2
20260904091054 79 196 1.0 8.0 0.00 0.00 0.00 81 1013.2
20260904090553 79 194 1.0 6.0 0.00 0.00 0.00 81 1013.2
20260904090109 79 161 1.0 6.0 0.00 0.00 0.00 80 1013.2
20260904085559 79 196 1.0 5.0 0.00 0.00 0.00 80 1013.2
20260904085055 79 0 0.0 6.0 0.00 0.00 0.00 80 1013.2
20260904084602 79 180 2.0 9.0 0.00 0.00 0.00 80 1013.3
20260904084058 79 200 2.0 9.0 0.00 0.00 0.00 80 1013.1
20260904083557 79 180 2.0 7.0 0.00 0.00 0.00 79 1013.2
20260904083103 79 223 1.0 7.0 0.00 0.00 0.00 79 1013.2
20260904082554 80 189 1.0 5.0 0.00 0.00 0.00 79 1013.2
20260904082053 80 0 1.0 7.0 0.00 0.00 0.00 79 1013.2
20260904081602 80 205 2.0 7.0 0.00 0.00 0.00 79 1013.2
20260904081056 80 193 2.0 6.0 0.00 0.00 0.00 79 1013.2
20260904080554 80 207 2.0 9.0 0.00 0.00 0.00 78 1013.1
20260904080103 80 197 1.0 9.0 0.00 0.00 0.00 78 1013.3
20260904075554 80 213 2.0 9.0 0.00 0.00 0.00 78 1013.2
20260904075055 80 200 2.0 7.0 0.00 0.00 0.00 78 1013.1
20260904074603 80 205 1.0 7.0 0.00 0.00 0.00 77 1013.2
20260904074054 80 205 2.0 8.0 0.00 0.00 0.00 77 1013.2
20260904073556 80 197 1.0 8.0 0.00 0.00 0.00 77 1013.1
20260904073108 80 0 2.0 8.0 0.00 0.00 0.00 77 1013.0
20260904072553 80 0 1.0 8.0 0.00 0.00 0.00 76 1013.0
20260904072054 80 173 2.0 8.0 0.00 0.00 0.00 76 1013.2
20260904071600 80 202 2.0 8.0 0.00 0.00 0.00 76 1013.3
20260904071055 80 227 2.0 7.0 0.00 0.00 0.00 76 1013.3
20260904070555 80 155 1.0 5.0 0.00 0.00 0.00 75 1013.3
20260904065554 80 221 1.0 5.0 0.00 0.00 0.00 74 1013.5
20260904065059 80 0 0.0 3.0 0.00 0.00 0.00 74 1013.5
20260904064601 80 195 0.0 3.0 0.00 0.00 0.00 74 1013.5
20260904064059 80 0 0.0 5.0 0.00 0.00 0.00 74 1013.5
20260904063557 80 205 0.0 5.0 0.00 0.00 0.00 73 1013.5
20260904063103 80 0 1.0 4.0 0.00 0.00 0.00 73 1013.5
20260904062554 80 143 0.0 4.0 0.00 0.00 0.00 73 1013.5
20260904062055 80 136 0.0 4.0 0.00 0.00 0.00 72 1013.5
20260904061600 80 150 0.0 3.0 0.00 0.00 0.00 72 1013.5
20260904061054 80 146 0.0 3.0 0.00 0.00 0.00 72 1013.5
20260904060555 80 0 1.0 4.0 0.00 0.00 0.00 71 1013.6
20260904060103 80 206 0.0 4.0 0.00 0.00 0.00 71 1013.6
20260904055555 80 136 0.0 5.0 0.00 0.00 0.00 71 1013.6
20260904055056 80 228 0.0 5.0 0.00 0.00 0.00 71 1013.6
20260904054608 80 0 0.0 3.0 0.00 0.00 0.00 70 1013.6
20260904054054 80 169 0.0 3.0 0.00 0.00 0.00 70 1013.6
20260904053554 81 175 0.0 2.0 0.00 0.00 0.00 70 1013.6
20260904053102 81 175 0.0 2.0 0.00 0.00 0.00 70 1013.6
20260904052554 81 0 0.0 2.0 0.00 0.00 0.00 70 1013.5
20260904052054 81 177 0.0 4.0 0.00 0.00 0.00 70 1013.5
20260904051605 81 0 0.0 4.0 0.00 0.00 0.00 70 1013.5
20260904051054 81 179 0.0 4.0 0.00 0.00 0.00 70 1013.4
20260904050557 81 0 0.0 4.0 0.00 0.00 0.00 70 1013.5
20260904050107 81 146 0.0 5.0 0.00 0.00 0.00 70 1013.4
20260904045555 81 0 0.0 5.0 0.00 0.00 0.00 70 1013.3
20260904045055 81 204 1.0 4.0 0.00 0.00 0.00 70 1013.3
20260904044611 81 130 0.0 4.0 0.00 0.00 0.00 70 1013.2
20260904044053 81 123 0.0 4.0 0.00 0.00 0.00 70 1013.3
20260904043554 81 0 0.0 4.0 0.00 0.00 0.00 70 1013.4
20260904043059 82 0 0.0 7.0 0.00 0.00 0.00 70 1013.4
20260904042554 82 222 0.0 7.0 0.00 0.00 0.00 69 1013.3
20260904042055 82 0 0.0 6.0 0.00 0.00 0.00 69 1013.2
20260904041604 82 164 0.0 5.0 0.00 0.00 0.00 69 1013.2
20260904041055 82 154 1.0 5.0 0.00 0.00 0.00 69 1013.3
20260904040555 82 102 1.0 5.0 0.00 0.00 0.00 69 1013.3
20260904040105 82 0 0.0 4.0 0.00 0.00 0.00 69 1013.3
20260904035617 82 169 1.0 6.0 0.00 0.00 0.00 69 1013.4
20260904035057 82 0 1.0 6.0 0.00 0.00 0.00 69 1013.4
20260904034604 82 139 0.0 4.0 0.00 0.00 0.00 69 1013.4
20260904034056 83 0 0.0 4.0 0.00 0.00 0.00 69 1013.4
20260904033557 83 132 0.0 4.0 0.00 0.00 0.00 69 1013.4
20260904033105 83 161 1.0 6.0 0.00 0.00 0.00 69 1013.4
20260904032555 83 146 0.0 6.0 0.00 0.00 0.00 69 1013.4
20260904032055 83 221 1.0 6.0 0.00 0.00 0.00 69 1013.3
20260904031604 83 0 1.0 5.0 0.00 0.00 0.00 69 1013.3
20260904031055 83 246 1.0 7.0 0.00 0.00 0.00 69 1013.4
20260904030555 83 0 1.0 7.0 0.00 0.00 0.00 69 1013.4
20260904025556 84 134 1.0 7.0 0.00 0.00 0.00 68 1013.2
20260904025057 84 214 2.0 7.0 0.00 0.00 0.00 68 1013.2
20260904024614 84 171 2.0 7.0 0.00 0.00 0.00 68 1013.2
20260904024055 85 139 2.0 6.0 0.00 0.00 0.00 68 1013.0
20260904023556 85 157 1.0 6.0 0.00 0.00 0.00 67 1012.9
20260904023112 85 240 1.0 5.0 0.00 0.00 0.00 66 1012.8
20260904022556 85 183 2.0 7.0 0.00 0.00 0.00 65 1012.7
20260904022055 85 199 2.0 8.0 0.00 0.00 0.00 64 1012.7
20260904021603 86 0 1.0 8.0 0.00 0.00 0.00 64 1012.4
20260904021056 86 105 1.0 8.0 0.00 0.00 0.00 63 1012.3
20260904020556 86 133 0.0 8.0 0.00 0.00 0.00 63 1012.2
20260904020105 86 157 1.0 6.0 0.00 0.00 0.00 63 1012.2
20260904015556 86 138 1.0 7.0 0.00 0.00 0.00 63 1012.0
20260904015056 86 306 2.0 7.0 0.00 0.00 0.00 63 1011.9
20260904014608 86 0 1.0 9.0 0.00 0.00 0.00 62 1011.8
20260904014058 87 142 1.0 9.0 0.00 0.00 0.00 62 1011.8
20260904013559 87 122 1.0 7.0 0.00 0.00 0.00 62 1011.7
20260904013103 87 360 1.0 6.0 0.00 0.00 0.00 62 1011.7
20260904012556 87 150 0.0 7.0 0.00 0.00 0.00 62 1011.8
20260904012056 87 207 2.0 7.0 0.00 0.00 0.00 62 1011.8
20260904011614 87 130 2.0 5.0 0.00 0.00 0.00 62 1011.6
20260904011058 88 347 1.0 6.0 0.00 0.00 0.00 62 1011.6
20260904010559 88 124 1.0 7.0 0.00 0.00 0.00 62 1011.4
20260904010112 88 112 1.0 8.0 0.00 0.00 0.00 61 1011.5
20260904005556 88 77 2.0 8.0 0.00 0.00 0.00 61 1011.4
20260904005054 88 87 1.0 8.0 0.00 0.00 0.00 61 1011.2
20260904004600 89 215 1.0 8.0 0.00 0.00 0.00 61 1011.3
20260904004055 89 91 3.0 8.0 0.00 0.00 0.00 61 1011.3
20260904003555 89 99 2.0 7.0 0.00 0.00 0.00 61 1011.2
20260904003105 89 86 1.0 7.0 0.00 0.00 0.00 61 1011.3
20260904002555 89 0 2.0 7.0 0.00 0.00 0.00 60 1011.3
20260904002054 89 266 2.0 7.0 0.00 0.00 0.00 60 1011.3
20260904001600 90 298 1.0 6.0 0.00 0.00 0.00 60 1011.2
20260904001054 90 184 1.0 6.0 0.00 0.00 0.00 60 1011.2
20260904000554 90 90 2.0 7.0 0.00 0.00 0.00 60 1011.1
20260904000100 90 165 2.0 7.0 0.00 0.00 0.00 59 1011.0
20260903235555 90 153 1.0 9.0 0.00 0.00 0.00 59 1011.0
20260903235054 91 92 3.0 9.0 0.00 0.00 0.00 58 1011.0
20260903234600 91 189 2.0 8.0 0.00 0.00 0.00 58 1011.0
20260903234055 92 213 1.0 8.0 0.00 0.00 0.00 57 1011.0
20260903233553 92 76 2.0 9.0 0.00 0.00 0.00 57 1010.9
20260903233103 93 117 2.0 9.0 0.00 0.00 0.00 56 1010.7